Flag for Finland Weather past 2 weeks in Vantaa, Finland

Now
55 °F

Scattered clouds.


Feels Like: 53 °F
Forecast: 50 / 67 °F
Wind: 8 mph from Southwest

Location: Helsinki-Vantaa

Current Time: Sep 3, 2014 at 8:33:36 AM

Latest Report: Sep 3, 2014 at 7:50 AM


Visibility: N/A

Pressure: 30.30 "Hg

Humidity: 88%

Dew point: 52 °F

Location of VantaaLocation

Historic Weather in Vantaa — Graph

°F

Vantaa temperature yesterday

Maximum temperature yesterday: 61 °F (at 12:50 PM)
Minimum temperature yesterday: 39 °F (at 5:20 AM)
Average temperature yesterday: 53 °F

Past Weeks' High & Low Weather Summary

 TemperatureHumidityPressure
High66 °F (Aug 21, 2:20 PM)100% (Aug 21, 3:50 AM)30.33 "Hg (Aug 21, 3:50 AM)
Low39 °F (Sep 2, 5:20 AM)44% (Aug 30, 11:50 AM)29.33 "Hg (Aug 26, 6:50 AM)
Average56 °F83%29.80 "Hg
* Reported Aug 19 7:20 AM — Sep 3 7:20 AM, Vantaa, Weather by CustomWeather, © 2014

Note: Actual official high and low records may vary slightly from our data, if they occured in-between our weather recording intervals... More about our weather records

Advertising

Vantaa weather history for previous 24 hours

 ConditionsComfort  
Time TempWeatherWind HumidityBarometerVisibility
7:20 AM
Sep 3
54 °FScattered clouds.8 mph94%30.30 "HgN/A
6:50 AM54 °FPassing clouds.8 mph94%30.30 "HgN/A
6:20 AM54 °FPassing clouds.8 mph94%30.30 "HgN/A
5:50 AM54 °FPassing clouds.7 mph94%30.30 "HgN/A
5:20 AM54 °FPassing clouds.8 mph94%30.30 "HgN/A
4:50 AM54 °FPartly cloudy.5 mph88%30.30 "HgN/A
4:20 AM54 °FPartly cloudy.5 mph94%30.30 "HgN/A
3:50 AM54 °FClear.5 mph94%30.30 "Hg10 mi
3:20 AM54 °FClear.5 mph94%30.30 "Hg10 mi
2:50 AM54 °FClear.7 mph94%30.33 "Hg10 mi
2:20 AM54 °FClear.6 mph94%30.33 "Hg10 mi
1:50 AM54 °FClear.6 mph88%30.33 "Hg10 mi
1:20 AM55 °FClear.7 mph82%30.30 "Hg10 mi
12:50 AM55 °FClear.6 mph82%30.30 "Hg10 mi
12:20 AM55 °FClear.7 mph82%30.30 "Hg10 mi
11:50 PM
Sep 2
55 °FClear.6 mph82%30.30 "Hg10 mi
11:20 PM55 °FClear.7 mph82%30.30 "Hg10 mi
10:50 PM55 °FClear.6 mph77%30.30 "Hg10 mi
10:20 PM55 °FClear.6 mph77%30.30 "Hg10 mi
9:50 PM55 °FClear.8 mph77%30.30 "Hg10 mi
9:20 PM57 °FSunny.7 mph67%30.30 "Hg10 mi
8:50 PM57 °FSunny.7 mph67%30.27 "Hg10 mi
8:20 PM57 °FSunny.6 mph72%30.27 "Hg10 mi
7:50 PM57 °FSunny.7 mph72%30.27 "Hg10 mi
7:20 PM57 °FPartly sunny.7 mph67%30.27 "HgN/A
6:50 PM59 °FPartly sunny.9 mph63%30.27 "HgN/A
6:20 PM59 °FPartly sunny.10 mph59%30.27 "HgN/A
5:50 PM59 °FPartly sunny.10 mph63%30.27 "HgN/A
5:20 PM61 °FPartly sunny.9 mph68%30.27 "HgN/A
4:20 PM61 °FPartly sunny.9 mph68%30.27 "HgN/A
3:50 PM61 °FPartly sunny.10 mph63%30.27 "HgN/A
3:20 PM59 °FPartly sunny.10 mph72%30.27 "HgN/A
2:50 PM61 °FScattered clouds.10 mph63%30.27 "HgN/A
2:20 PM61 °FScattered clouds.7 mph63%30.27 "HgN/A
1:50 PM61 °FPartly sunny.5 mph55%30.27 "HgN/A
1:20 PM61 °FPartly sunny.6 mph55%30.27 "HgN/A
12:50 PM61 °FPartly sunny.6 mph59%30.27 "HgN/A
12:20 PM59 °FPartly sunny.7 mph59%30.27 "HgN/A
11:50 AM59 °FPartly sunny.3 mph63%30.27 "HgN/A
11:20 AM59 °FPartly sunny.2 mph68%30.27 "HgN/A
10:50 AM59 °FPartly sunny.2 mph72%30.27 "HgN/A
10:20 AM55 °FPartly sunny.1 mph77%30.27 "HgN/A
9:50 AM54 °FPartly sunny.2 mph82%30.27 "HgN/A
9:20 AM50 °FPartly sunny.1 mph94%30.27 "HgN/A
8:50 AM48 °FSunny.2 mph94%30.27 "Hg10 mi
8:20 AM46 °FPassing clouds.5 mph100%30.27 "HgN/A
Weather by CustomWeather, © 2014

See weather overviewHow to use our weather pages